Content
SEND FEEDBACK

Daily
Averages
Monthly
Summary
Mexico

CANCUN, QUINTANA ROO


Home > North America > Mexico > Quintana Roo
Elevation: 9 meters     Latitude: 21 09N     Longitude: 086 49W

WEATHER
 
SELECT A DAY
Number of Records: 167,760;   Date Range: 1/1/95 - 12/18/14
 
SHARE

PRINT THIS DATA

[ ← Previous Day ]
WEATHER ALMANAC - 8 APRIL, 2013
[ Next Day → ]
[ °F ]   °C
Weather ElementAverageHighLow
Temperature25.6 °C29 °C (1:42 pm)21 °C (5:41 am)
Dewpoint20.7 °C23 °C (2:41 pm)16 °C (6:41 am)
Humidity74.8 %88 % (7:41 am)66 % (1:42 pm)
Barometer1014.2 hPa1016.3 hPa (10:48 am)1012.5 hPa (3:42 am)
Wind Speed17.2 km/h31.5 km/h (3:43 pm)
Weather ElementAverage
Visibility11.3 km
Wind DirectionESE (116.5 °)

Weather ElementTotal
Precipitation---
Cooling Degree Days6.7 (Base 18.3)
Growing Degree Days15 (Base 10)
Averaged from 23 records on 8 April, 2013
WEATHER CONDITIONS BREAKOUT
WIND DIRECTION BREAKOUT
WEATHER BY HOUR - 8 APRIL, 2013
[ °F ]   °C
Local TimeTemperatureDewpointHumidityBarometerVisibilityWind DirectionWind SpeedGust SpeedPrecipitationEventsConditions
1:44 AM23 °C18 °C73 %1014.2 hPa11.3 kmESE (120°)9.3 km/hPartly Cloudy
2:43 AM23 °C17 °C69 %1013.5 hPa11.3 kmESE (110°)9.3 km/hClear
3:42 AM23 °C17 °C69 %1012.5 hPa11.3 kmESE (110°)9.3 km/hClear
4:41 AM22 °C17 °C73 %1013.2 hPa11.3 kmEast (80°)9.3 km/hClear
5:41 AM21 °C17 °C78 %1013.5 hPa11.3 kmEast (100°)9.3 km/hPartly Cloudy
6:41 AM21 °C16 °C73 %1013.2 hPa11.3 kmENE (60°)9.3 km/hScattered Clouds
7:41 AM22 °C20 °C88 %1014.6 hPa11.3 kmESE (110°)5.6 km/hScattered Clouds
8:44 AM26 °C20 °C69 %1014.9 hPa11.3 kmESE (110°)14.8 km/hMostly Cloudy
9:40 AM27 °C21 °C70 %1015.6 hPa11.3 kmESE (110°)16.7 km/hMostly Cloudy
10:48 AM27 °C21 °C70 %1016.3 hPa11.3 kmSE (130°)20.4 km/hOvercast
11:40 AM28 °C22 °C70 %1015.6 hPa11.3 kmESE (120°)18.5 km/hMostly Cloudy
12:41 PM28 °C22 °C70 %1015.2 hPa11.3 kmESE (120°)22.2 km/hMostly Cloudy
1:42 PM29 °C22 °C66 %1013.9 hPa11.3 kmESE (120°)24.1 km/hMostly Cloudy
2:41 PM28 °C23 °C74 %1013.2 hPa11.3 kmSE (130°)25.9 km/hMostly Cloudy
3:43 PM28 °C22 °C70 %1013.2 hPa11.3 kmSE (130°)31.5 km/hScattered Clouds
4:41 PM28 °C22 °C70 %1012.9 hPa11.3 kmSE (140°)31.5 km/hScattered Clouds
5:42 PM27 °C22 °C74 %1013.2 hPa11.3 kmSE (130°)22.2 km/hScattered Clouds
6:46 PM27 °C23 °C79 %1013.5 hPa11.3 kmSE (130°)20.4 km/hScattered Clouds
7:41 PM26 °C23 °C83 %1014.2 hPa11.3 kmESE (120°)16.7 km/hPartly Cloudy
8:42 PM26 °C23 °C83 %1014.9 hPa11.3 kmSE (130°)14.8 km/hClear
9:44 PM26 °C23 °C83 %1014.6 hPa11.3 kmESE (120°)14.8 km/hScattered Clouds
10:44 PM26 °C23 °C83 %1015.2 hPa11.3 kmSE (130°)18.5 km/hPartly Cloudy
11:41 PM26 °C23 °C83 %1015.2 hPa11.3 kmESE (120°)20.4 km/hPartly Cloudy
Hourly data recorded from MMUN, located 0 kilometers away from Cancun, Quintana Roo







STORIES FROM OUR PARTNERS